DateTimeUTC,F1_A11,F1_S11,BsB_S11,BsG_S11,BsR_S11,BbsB_S11,BbsG_S11,BbsR_S11,BaB_A11,BaG_A11,BaR_A11,Tu_S11,T_S11,Uu_S11,U_S11,P_S11,T1_A11
2021-12-17T16:00:00Z,00000200,21000000,,,,,,,-000.30,-000.44,-000.08,19.0,26.1,,00.0,0649.3,31.0
2021-12-17T16:01:00Z,00000200,21000000,,,,,,,-000.30,-000.15,-000.16,18.9,26.1,,00.0,0649.3,31.0
2021-12-17T16:02:00Z,00000200,21000000,,,,,,,0000.32,0000.32,-000.34,18.9,26.1,,00.0,0649.3,31.0
2021-12-17T16:03:00Z,00000200,61000000,,,,,,,-000.49,-000.22,0000.17,18.9,26.1,,00.0,0649.3,31.0
2021-12-17T16:04:00Z,00000200,41000000,-000.25,0000.30,0000.10,0000.20,0000.17,-000.32,-000.37,-000.42,-000.41,18.8,25.8,,00.0,0650.2,31.0
2021-12-17T16:05:00Z,00000200,01000000,-000.09,-000.02,0000.17,0000.74,0000.17,0000.09,0000.23,0000.01,0000.08,18.8,25.7,,00.0,0650.3,31.0
2021-12-17T16:06:00Z,00000200,01000000,0000.08,0000.03,0000.26,0000.23,-000.03,0000.24,0000.16,-000.10,0000.11,18.8,25.6,,00.0,0650.3,31.0
2021-12-17T16:07:00Z,00000200,01000000,0000.88,-000.22,0000.40,-000.17,0000.23,-000.11,-000.26,0000.36,0000.03,18.8,25.6,,00.0,0650.3,31.0
2021-12-17T16:08:00Z,00000200,01000000,0000.15,0000.05,0000.23,-000.09,-000.07,0000.44,0000.52,-000.19,0000.34,18.8,25.6,,00.0,0650.3,31.0
2021-12-17T16:09:00Z,00000200,01000000,0000.14,0000.23,0000.06,0000.71,-000.11,-000.25,-000.04,0000.28,-000.41,18.9,25.6,,00.0,0650.4,31.0
2021-12-17T16:10:00Z,00000200,01000000,0000.89,0000.05,0000.23,0000.51,0000.26,0000.02,0000.09,0000.10,0000.31,18.9,25.6,,00.0,0650.4,31.0
2021-12-17T16:11:00Z,00000200,01000000,0000.38,-000.03,0000.11,-000.32,0000.06,-000.45,-000.11,0000.07,-000.09,19.0,25.7,,00.0,0650.4,31.0
2021-12-17T16:12:00Z,00000200,01000000,-000.26,0000.14,0000.40,-000.38,-000.10,0000.12,0000.23,-000.17,0000.42,19.0,25.7,,00.0,0650.4,31.0
2021-12-17T16:13:00Z,00000200,01000000,-000.21,-000.15,0000.09,0000.56,-000.14,-000.04,0000.08,0000.04,-000.26,19.1,25.7,,00.0,0650.5,31.0
2021-12-17T16:14:00Z,00000200,01000000,0000.35,0000.10,0000.37,0000.67,0000.10,0000.42,-000.10,0000.31,0000.04,19.1,25.7,,00.0,0650.5,31.1
2021-12-17T16:15:00Z,00000200,01000000,-000.12,0000.11,0000.10,0000.46,-000.19,-000.01,-000.07,-000.07,0000.10,19.2,25.8,,00.0,0650.5,31.0
2021-12-17T16:16:00Z,00000200,01000000,0000.14,0000.39,0000.18,-000.06,-000.06,0000.10,0000.09,0000.05,0000.07,19.3,25.8,,00.0,0650.5,31.1
2021-12-17T16:17:00Z,00000200,01000000,0000.29,0000.04,0000.46,0000.77,-000.03,0000.34,0000.32,-000.08,0000.15,19.3,25.8,,00.0,0650.5,31.1
2021-12-17T16:18:00Z,00000200,01000000,-000.45,0000.07,0000.21,0000.29,-000.05,0000.02,0000.08,-000.01,0000.08,19.2,25.8,,00.0,0650.5,31.0
2021-12-17T16:19:00Z,00000200,01000000,0000.46,0000.06,0000.02,0000.78,0000.32,-000.01,-000.39,0000.09,-000.03,19.2,25.8,,00.0,0650.5,31.0
2021-12-17T16:20:00Z,00000200,01000000,-000.04,0000.15,0000.13,-000.32,-000.03,-000.21,0000.18,0000.20,-000.60,19.1,25.7,,00.0,0650.5,31.0
2021-12-17T16:21:00Z,00000200,01000000,0000.58,0000.16,0000.06,0000.65,0000.13,-000.05,0000.10,-000.10,0000.51,19.1,25.7,,00.0,0650.5,31.0
2021-12-17T16:22:00Z,00000200,01000000,-000.66,0000.20,0000.20,0000.57,0000.12,0000.16,0000.16,0000.44,0000.20,19.1,25.7,,00.0,0650.5,31.0
2021-12-17T16:23:00Z,00000200,01000000,-000.39,0000.48,-000.15,0000.05,-000.20,0000.12,0000.27,-000.28,-000.12,19.2,25.7,,00.0,0650.5,31.0
2021-12-17T16:24:00Z,00000200,01000000,0000.57,0000.11,0000.12,0000.53,0000.18,0000.01,-000.15,0000.00,0000.21,19.2,25.7,,00.0,0650.6,31.1
2021-12-17T16:25:00Z,00000200,01000000,0000.65,0000.29,0000.08,-000.52,-000.06,0000.18,0000.29,0000.18,-000.14,19.2,25.8,,00.0,0650.5,31.0
2021-12-17T16:26:00Z,00000200,01000000,0000.44,0000.18,0000.44,0000.04,-000.37,0000.03,-000.05,0000.31,0000.42,19.3,25.8,,00.0,0650.6,31.0
2021-12-17T16:27:00Z,00000200,01000000,0000.49,0000.09,-000.08,0000.17,-000.03,-000.22,0000.49,0000.17,-000.10,19.3,25.8,,00.0,0650.6,31.1
2021-12-17T16:28:00Z,00000200,01000000,-000.08,0000.36,0000.27,0000.56,-000.18,0000.12,-000.66,-000.15,-000.29,19.4,25.9,,00.0,0650.6,31.1
2021-12-17T16:29:00Z,00000200,01000000,-000.07,0000.02,0000.06,-000.11,-000.14,-000.02,0000.33,0000.20,0000.20,19.4,25.9,,00.0,0650.6,31.1
2021-12-17T16:30:00Z,00000200,01000000,0000.36,-000.02,0000.04,0000.18,0000.21,-000.04,0000.14,-000.01,0000.06,19.3,25.9,,00.0,0650.6,31.1
2021-12-17T16:31:00Z,00000200,01000000,0000.09,0000.42,0000.09,0000.20,-000.17,-000.14,-000.15,-000.04,0000.16,19.3,25.8,,00.0,0650.6,31.0
2021-12-17T16:32:00Z,00000200,01000000,0000.00,0000.31,0000.28,-000.16,0000.06,0000.48,0000.31,0000.16,-000.06,19.2,25.8,,00.0,0650.6,31.0
2021-12-17T16:33:00Z,00000200,01000000,0000.60,-000.26,0000.07,0000.36,-000.01,-000.08,-000.34,-000.26,-000.01,19.1,25.8,,00.0,0650.6,31.0
2021-12-17T16:34:00Z,00000200,01000000,0000.02,0000.26,0000.45,0000.04,0000.04,0000.19,0000.14,-000.18,0000.12,19.0,25.7,,00.0,0650.6,31.0
2021-12-17T16:35:00Z,00000200,01000000,-000.12,0000.00,0000.18,0000.69,0000.13,0000.04,-000.16,0000.28,0000.09,18.9,25.7,,00.0,0650.7,31.0
2021-12-17T16:36:00Z,00000200,01000000,0000.80,0000.16,0000.40,-000.42,-000.17,0000.55,0000.26,0000.09,-000.32,18.9,25.6,,00.0,0650.7,31.0
2021-12-17T16:37:00Z,00000200,01000000,0000.41,0000.19,0000.30,-000.08,-000.20,0000.28,-000.02,0000.26,0000.30,18.9,25.6,,00.0,0650.7,31.0
2021-12-17T16:38:00Z,00000200,01000000,0000.38,0000.57,0000.68,0000.26,0000.24,0000.25,0000.14,-000.22,-000.26,19.0,25.6,,00.0,0650.8,31.0
2021-12-17T16:39:00Z,00000200,01000000,0000.43,0000.24,0000.24,0000.31,0000.02,0000.10,0000.00,0000.16,0000.30,19.0,25.6,,00.0,0650.8,31.0
2021-12-17T16:40:00Z,00000200,01000000,0000.31,0000.40,0000.12,0000.29,-000.05,-000.01,0000.11,-000.16,-000.04,19.1,25.7,,00.0,0650.8,31.0
2021-12-17T16:41:00Z,00000200,01000000,-000.32,0000.16,0000.44,0000.25,-000.26,0000.38,0000.34,0000.28,0000.15,19.1,25.7,,00.0,0650.8,31.0
2021-12-17T16:42:00Z,00000200,01000000,-000.20,0000.37,0000.30,-000.02,-000.04,0000.38,-000.28,0000.05,0000.09,19.2,25.7,,00.0,0650.8,31.0
2021-12-17T16:43:00Z,00000200,01000000,0000.15,0000.13,0000.17,-000.02,0000.00,0000.15,-000.05,0000.22,-000.07,19.2,25.7,,00.0,0650.8,31.0
2021-12-17T16:44:00Z,00000200,01000000,0000.01,0000.22,0000.22,0000.49,-000.35,0000.06,-000.12,-000.32,-000.22,19.3,25.7,,00.0,0650.9,31.1
2021-12-17T16:45:00Z,00000200,01000000,0000.02,0000.26,-000.15,0000.21,-000.38,0000.02,0000.28,0000.23,0000.12,19.2,25.7,,00.0,0650.9,31.0
2021-12-17T16:46:00Z,00000200,01000000,-000.05,0000.34,0000.37,0000.17,0000.09,-000.12,-000.02,-000.02,0000.21,19.2,25.8,,00.0,0650.9,31.0
2021-12-17T16:47:00Z,00000200,01000000,0000.61,0000.20,0000.33,0000.07,0000.16,-000.07,-000.07,-000.28,0000.09,19.1,25.7,,00.0,0650.9,31.0
2021-12-17T16:48:00Z,00000200,01000000,0000.64,-000.05,0000.29,0000.16,0000.01,0000.06,0000.32,0000.29,0000.22,19.0,25.7,,00.0,0650.8,31.0
2021-12-17T16:49:00Z,00000200,01000000,0000.06,-000.05,0000.12,0000.04,0000.06,0000.06,-000.32,-000.15,-000.64,18.9,25.6,,00.0,0650.8,31.0
2021-12-17T16:50:00Z,00000200,01000000,-000.29,0000.12,0000.01,-000.05,-000.16,0000.20,0000.05,-000.23,0000.18,18.9,25.6,,00.0,0650.8,31.0
2021-12-17T16:51:00Z,00000200,01000000,-000.05,0000.04,0000.30,0000.44,-000.16,-000.23,0000.34,0000.40,0000.07,18.8,25.6,,00.0,0650.9,31.0
2021-12-17T16:52:00Z,00000200,01000000,0000.86,0000.09,0000.13,-000.21,-000.08,0000.16,-000.13,-000.01,0000.42,18.9,25.5,,00.0,0650.8,31.0
2021-12-17T16:53:00Z,00000200,01000000,0000.14,0000.37,0000.57,0000.42,0000.14,-000.00,0000.23,0000.17,-000.08,18.9,25.6,,00.0,0650.8,31.0
2021-12-17T16:54:00Z,00000200,01000000,0000.17,0000.43,-000.11,0000.91,0000.10,0000.16,0000.31,0000.22,0000.15,19.0,25.6,,00.0,0650.8,31.0
2021-12-17T16:55:00Z,00000200,01000000,0000.18,0000.25,-000.05,-000.00,-000.07,-000.25,-000.04,0000.07,-000.12,19.0,25.6,,00.0,0650.8,31.0
2021-12-17T16:56:00Z,00000200,01000000,-000.43,0000.30,0000.21,0000.51,0000.24,-000.06,-000.02,0000.20,0000.06,19.1,25.6,,00.0,0650.8,31.0
2021-12-17T16:57:00Z,00000200,41000000,,,,,,,0001.19,0000.76,0000.88,19.1,25.7,,00.0,0650.9,31.0
2021-12-17T16:58:00Z,00000200,61000000,,,,,,,-000.30,-000.21,-000.16,18.9,25.8,,00.0,0650.0,31.0
2021-12-17T16:59:00Z,00000200,21000000,,,,,,,-000.36,-000.35,-000.29,18.9,25.9,,00.0,0649.9,31.1
